Location: ??????
(41.3747°N, 22.5491°E)
Time: 04:40:11
(UTC+00:00)

CORIOLIS - Pass Details

Date: 01 December 2020
Orbit: 818 x 839 km, 98.7° (Epoch: 20 January)

Event Time Altitude Azimuth Distance (km) Brightness Sun altitude
Rises 15:42:43 0° 155° (SSE) 3,360 7.3 -7.9°
Reaches altitude 10° 15:45:04 10° 152° (SSE) 2,433 6.5 -8.3°
Maximum altitude 15:50:23 62° 72° (ENE) 935 4.2 -9.2°
Drops below altitude 10° 15:55:46 10° 353° (N) 2,460 6.5 -10.2°
Sets 15:58:09 0° 350° (N) 3,400 7.2 -10.6°
